Location: Pinawa
(50.1500°N, 95.8830°W)
Time: 21:13:38
(UTC-05:00)

Amateur Radio Satellites - All Passes

Search period start: 23 March 2017 20:43
Search period end: 24 March 2017 20:43
Location: Pinawa, 50.1500°N, 95.8830°W

Satellite Date Start Highest point End Downlink Frequencies (MHz)
Time Altitude Azimuth
YUBILEINY 23 Mar 20:45:09 20:53:35 57° 270° (W) 21:02:00 435.215
STARS 23 Mar 20:45:11 20:46:00 10° 308° (NW) 20:46:48 437.465
SO-50 23 Mar 20:59:45 21:01:58 13° 0° (N) 21:04:11 436.795
Oscar 11 23 Mar 21:02:53 21:07:08 58° 71° (ENE) 21:11:23 .
ZACube-1 23 Mar 21:03:54 21:08:28 75° 74° (ENE) 21:12:58 437.345
AAUSAT CUBESAT 2 23 Mar 21:28:31 21:32:13 33° 264° (W) 21:35:58 437.432
AO-73 23 Mar 21:34:23 21:38:54 62° 259° (W) 21:43:22 145.935
SEEDS 23 Mar 21:35:44 21:38:24 16° 271° (W) 21:41:04 437.485
CUTE 1.7 + AOD 2 23 Mar 21:37:52 21:39:16 11° 274° (W) 21:40:40 437.475
AO-85 23 Mar 21:38:00 21:40:08 13° 112° (ESE) 21:42:12 145.980
PCSat 23 Mar 21:38:04 21:41:32 17° 254° (WSW) 21:44:59 145.827
DELFI C3 23 Mar 21:41:35 21:45:21 46° 70° (ENE) 21:49:08 145.870
STRAND 1 23 Mar 21:44:37 21:49:34 49° 292° (WNW) 21:54:27 437.568
UWE-3 23 Mar 21:52:50 21:56:46 26° 267° (W) 22:00:40 435.000/436.395/437.385
M-CUBED/EXP-1 PRIME 23 Mar 22:10:13 22:12:01 12° 312° (NW) 22:13:49 437.505
TIGRISAT 23 Mar 22:18:57 22:20:52 12° 86° (E) 22:22:46 435.000
CUBEBUG 2 23 Mar 22:23:09 22:24:12 11° 276° (W) 22:25:15 437.445
RS-15 23 Mar 22:23:20 22:35:49 85° 49° (NE) 22:47:46 29.354- 29.394
UNISAT 6 23 Mar 22:27:24 22:30:15 16° 88° (E) 22:33:01 437.425
PRISM 23 Mar 22:36:56 22:40:45 34° 97° (E) 22:44:33 437.425
FO-29 23 Mar 22:38:59 22:42:53 17° 83° (E) 22:46:33 435.910
SO-50 23 Mar 22:40:38 22:44:06 21° 25° (NNE) 22:47:32 436.795
Oscar 11 23 Mar 22:40:44 22:43:38 17° 270° (W) 22:46:34 .
LO-87 23 Mar 22:40:50 22:43:55 27° 67° (ENE) 22:47:02 145.935 - 145.965
ZACube-1 23 Mar 22:42:38 22:45:15 15° 272° (W) 22:47:51 437.345
YUBILEINY 23 Mar 22:45:02 22:48:20 13° 293° (WNW) 22:51:38 435.215
ESTCUBE 1 23 Mar 22:52:46 22:56:28 26° 63° (ENE) 23:00:10 437.505/2401.250
ISS 23 Mar 22:52:49 22:55:22 21° 143° (SE) 22:57:56 437.550
Tancredo 1 23 Mar 23:06:43 23:09:28 27° 146° (SSE) 23:12:15 437.200
AO-85 23 Mar 23:15:39 23:20:00 90° 307° (NW) 23:24:05 145.980
DELFI C3 23 Mar 23:17:39 23:20:24 18° 269° (W) 23:23:10 145.870
SPROUT 23 Mar 23:50:49 23:54:26 27° 64° (ENE) 23:58:04 437.525
TIGRISAT 23 Mar 23:53:43 23:58:14 85° 289° (WNW) 00:02:37 435.000
50 SAT 23 Mar 23:53:57 23:56:20 18° 63° (ENE) 23:58:44 437.505
UNISAT 6 24 Mar 00:02:58 00:07:27 66° 287° (WNW) 00:11:48 437.425
POLYITAN 1 24 Mar 00:04:00 00:06:17 14° 88° (E) 00:08:32 437.675
DX 1 24 Mar 00:06:44 00:10:05 22° 61° (ENE) 00:13:27 434.975-435.025
QB50P2 24 Mar 00:08:05 00:10:50 17° 90° (E) 00:13:34 145.880/145.840
PRISM 24 Mar 00:12:23 00:15:57 28° 295° (WNW) 00:19:33 437.425
BEESAT 3 24 Mar 00:14:14 00:17:57 42° 122° (ESE) 00:21:45 437.485
LO-87 24 Mar 00:14:16 00:17:20 26° 265° (W) 00:20:28 145.935 - 145.965
VELOX 1 24 Mar 00:18:11 00:22:30 56° 70° (ENE) 00:26:51 145.980
SO-50 24 Mar 00:20:47 00:25:18 73° 46° (NE) 00:29:48 436.795
FO-29 24 Mar 00:22:38 00:29:06 89° 286° (WNW) 00:34:47 435.910
BEESAT 2 24 Mar 00:23:28 00:26:41 24° 116° (ESE) 00:29:56 435.950
DUCHIFAT 1 24 Mar 00:24:56 00:27:58 19° 91° (E) 00:30:58 145.980
ISS 24 Mar 00:28:13 00:31:30 80° 163° (SSE) 00:34:48 437.550
ESTCUBE 1 24 Mar 00:28:49 00:33:05 43° 262° (W) 00:37:23 437.505/2401.250
RS-15 24 Mar 00:36:37 00:47:06 36° 255° (WSW) 00:57:14 29.354- 29.394
Tancredo 1 24 Mar 00:42:12 00:45:24 86° 343° (NNW) 00:48:37 437.200
UKube-1 24 Mar 00:52:16 00:56:18 40° 67° (ENE) 01:00:23 .
BUGSAT 1 24 Mar 00:54:18 00:56:31 14° 88° (E) 00:58:41 437.445
AO-85 24 Mar 00:57:45 01:00:54 20° 330° (NNW) 01:03:58 145.980
AIST 2D 24 Mar 01:00:31 01:04:03 88° 287° (WNW) 01:07:32 435.315
NANOSAT C BR1 24 Mar 01:08:33 01:12:44 54° 101° (E) 01:16:51 145.865
EO-79 24 Mar 01:11:06 01:15:21 62° 102° (ESE) 01:19:32 145.935-145.965
50 SAT 24 Mar 01:25:53 01:29:09 39° 261° (W) 01:32:26 437.505
BEESAT 24 Mar 01:26:02 01:27:48 12° 52° (NE) 01:29:35 436.000
SPROUT 24 Mar 01:26:11 01:30:12 38° 262° (W) 01:34:16 437.525
O/OREOS (USA 219) 24 Mar 01:30:40 01:31:44 11° 33° (NNE) 01:32:47 437.305
TIGRISAT 24 Mar 01:32:03 01:34:12 13° 305° (NW) 01:36:21 435.000
POLYITAN 1 24 Mar 01:38:19 01:42:35 71° 287° (WNW) 01:46:47 437.675
ITUPSAT 1 24 Mar 01:39:07 01:41:47 15° 54° (NE) 01:44:27 437.325
DX 1 24 Mar 01:41:45 01:45:58 50° 260° (W) 01:50:15 434.975-435.025
UNISAT 6 24 Mar 01:42:13 01:43:16 11° 308° (NW) 01:44:18 437.425
QB50P2 24 Mar 01:42:49 01:47:02 60° 288° (WNW) 01:51:12 145.880/145.840
BEESAT 3 24 Mar 01:52:06 01:55:40 31° 323° (NW) 01:59:18 437.485
VELOX 1 24 Mar 01:56:09 01:59:19 19° 269° (W) 02:02:29 145.980
DUCHIFAT 1 24 Mar 01:59:49 02:03:57 52° 290° (WNW) 02:08:02 145.980
BEESAT 2 24 Mar 02:00:20 02:04:13 49° 316° (NW) 02:08:11 435.950
SO-50 24 Mar 02:02:09 02:05:16 19° 247° (WSW) 02:08:24 436.795
ISS 24 Mar 02:04:47 02:08:05 65° 1° (N) 02:11:22 437.550
FO-29 24 Mar 02:08:41 02:13:14 21° 310° (NW) 02:17:26 435.910
MOZHAYETS 4 24 Mar 02:09:56 02:11:34 12° 53° (NE) 02:13:11
Tancredo 1 24 Mar 02:18:30 02:21:41 66° 5° (N) 02:24:53 437.200
BUGSAT 1 24 Mar 02:28:09 02:32:23 71° 287° (WNW) 02:36:32 437.445
UKube-1 24 Mar 02:28:55 02:32:29 25° 266° (W) 02:36:05 .
Gurwin Techsat 1B 24 Mar 02:33:45 02:38:14 27° 93° (E) 02:42:42 435.225
AO-85 24 Mar 02:42:13 02:42:48 10° 355° (N) 02:43:24 145.980
Oscar 19 24 Mar 02:43:11 02:48:13 51° 100° (E) 02:53:15 437.125/150
NANOSAT C BR1 24 Mar 02:45:00 02:48:06 20° 299° (WNW) 02:51:10 145.865
EO-79 24 Mar 02:47:48 02:50:41 18° 300° (WNW) 02:53:33 145.935-145.965
BEESAT 24 Mar 02:59:58 03:04:42 66° 72° (ENE) 03:09:28 436.000
O/OREOS (USA 219) 24 Mar 03:07:59 03:12:24 44° 56° (NE) 03:16:49 437.305
AO-7 24 Mar 03:09:26 03:12:56 13° 82° (E) 03:16:24 .
ITUPSAT 1 24 Mar 03:14:06 03:18:55 85° 71° (ENE) 03:23:45 437.325
POLYITAN 1 24 Mar 03:16:32 03:17:34 11° 306° (NW) 03:18:37 437.675
BEESAT 3 24 Mar 03:32:51 03:34:28 12° 345° (NNW) 03:36:07 437.485
BEESAT 2 24 Mar 03:40:32 03:42:55 15° 338° (NNW) 03:45:18 435.950
ISS 24 Mar 03:41:20 03:44:38 69° 201° (SSW) 03:47:55 437.550
MOZHAYETS 4 24 Mar 03:43:20 03:47:54 70° 73° (ENE) 03:52:29
KKS-1 24 Mar 03:47:16 03:50:45 23° 61° (ENE) 03:54:16 437.445
Tancredo 1 24 Mar 03:54:42 03:57:51 53° 205° (SSW) 04:01:00 437.200
BUGSAT 1 24 Mar 04:05:58 04:06:57 11° 306° (NW) 04:07:56 437.445
Gurwin Techsat 1B 24 Mar 04:13:18 04:18:29 53° 292° (WNW) 04:23:37 435.225
AO-85 24 Mar 04:22:47 04:24:56 14° 20° (NNE) 04:27:04 145.980
Oscar 19 24 Mar 04:22:57 04:27:19 28° 299° (WNW) 04:31:40 437.125/150
ITAMSAT 1 24 Mar 04:23:41 04:28:39 42° 98° (E) 04:33:34 435.822/435.867
CUBESAT XI-V 24 Mar 04:27:59 04:32:13 37° 67° (ENE) 04:36:27 437.345
STARS 24 Mar 04:31:21 04:35:07 28° 63° (ENE) 04:38:53 437.465
BEESAT 24 Mar 04:39:38 04:42:57 18° 270° (W) 04:46:16 436.000
O/OREOS (USA 219) 24 Mar 04:47:44 04:51:38 27° 255° (WSW) 04:55:31 437.305
ITUPSAT 1 24 Mar 04:54:51 04:57:24 14° 272° (W) 04:59:57 437.325
AO-7 24 Mar 04:59:22 05:07:35 59° 104° (ESE) 05:15:44 .
BEESAT 3 24 Mar 05:12:45 05:13:49 11° 10° (N) 05:14:53 437.485
ISS 24 Mar 05:18:24 05:20:41 17° 219° (SW) 05:22:57 437.550
BEESAT 2 24 Mar 05:21:47 05:22:21 10° 2° (N) 05:22:56 435.950
MOZHAYETS 4 24 Mar 05:22:40 05:25:34 16° 271° (W) 05:28:27
KKS-1 24 Mar 05:22:40 05:27:01 51° 260° (W) 05:31:25 437.445
Tancredo 1 24 Mar 05:32:02 05:33:27 12° 223° (SW) 05:34:51 437.200
M-CUBED/EXP-1 PRIME 24 Mar 05:50:11 05:53:43 43° 63° (ENE) 05:57:34 437.505
STRAND 1 24 Mar 05:50:41 05:52:45 12° 50° (NE) 05:54:49 437.568
Gurwin Techsat 1B 24 Mar 05:55:50 05:57:18 11° 312° (NW) 05:58:46 435.225
AO-85 24 Mar 06:02:27 06:06:16 46° 43° (NE) 06:10:06 145.980
ITAMSAT 1 24 Mar 06:03:23 06:08:01 33° 298° (WNW) 06:12:38 435.822/435.867
CUBESAT XI-V 24 Mar 06:05:38 06:09:40 30° 266° (W) 06:13:43 437.345
STARS 24 Mar 06:07:09 06:11:19 40° 262° (W) 06:15:32 437.465
XW-2D 24 Mar 06:32:41 06:34:37 13° 89° (E) 06:36:33 145.860 - 145.880
XW-2B 24 Mar 06:38:19 06:40:32 15° 90° (E) 06:42:46 145.730 - 145.750
DOVE 4 24 Mar 06:40:46 06:45:24 30° 93° (E) 06:49:59 437.250
NUDT-PHONESAT 24 Mar 06:42:29 06:44:23 13° 89° (E) 06:46:15 437.300
KAITUO 1B 24 Mar 06:45:55 06:48:05 15° 90° (E) 06:50:14 145.475/437.950
XW-2C 24 Mar 06:47:57 06:50:42 19° 92° (E) 06:53:26 145.795 - 145.815
BEESAT 3 24 Mar 06:49:30 06:52:48 24° 33° (NNE) 06:56:06 437.485
AO-7 24 Mar 06:52:31 07:00:08 43° 305° (NW) 07:07:44 .
BEESAT 2 24 Mar 06:58:54 07:01:43 18° 26° (NNE) 07:04:32 435.950
M-CUBED/EXP-1 PRIME 24 Mar 07:25:39 07:28:27 20° 263° (W) 07:31:25 437.505
STRAND 1 24 Mar 07:25:53 07:30:58 62° 70° (ENE) 07:36:04 437.568
CUTE-I 24 Mar 07:32:15 07:37:29 49° 99° (E) 07:42:39 437.470
LilacSat-2 24 Mar 07:37:35 07:41:21 69° 102° (ESE) 07:45:06 437.200
CUTE 1.7 + AOD 2 24 Mar 07:40:57 07:42:11 11° 86° (E) 07:43:23 437.475
XW-2F 24 Mar 07:41:15 07:45:01 70° 101° (ESE) 07:48:44 145.980 - 146.000
AO-85 24 Mar 07:43:14 07:46:26 24° 243° (WSW) 07:49:40 145.980
YUBILEINY 24 Mar 07:55:40 08:03:27 38° 84° (E) 08:11:14 435.215
HO-68 24 Mar 08:00:13 08:06:06 27° 91° (E) 08:11:57 435.675
XW-2D 24 Mar 08:05:30 08:09:13 59° 287° (WNW) 08:12:53 145.860 - 145.880
XW-2B 24 Mar 08:11:23 08:15:04 52° 288° (WNW) 08:18:43 145.730 - 145.750
NUDT-PHONESAT 24 Mar 08:15:02 08:18:41 57° 287° (WNW) 08:22:17 437.300
DOVE 4 24 Mar 08:18:09 08:23:15 49° 291° (WNW) 08:28:19 437.250
KAITUO 1B 24 Mar 08:18:49 08:22:27 52° 288° (WNW) 08:26:02 145.475/437.950
XW-2C 24 Mar 08:21:33 08:25:06 40° 290° (WNW) 08:28:37 145.795 - 145.815
BEESAT 3 24 Mar 08:26:46 08:30:48 69° 233° (SW) 08:34:47 437.485
CUBEBUG 2 24 Mar 08:29:21 08:32:23 18° 89° (E) 08:35:20 437.445
BEESAT 2 24 Mar 08:36:08 08:40:13 69° 48° (NE) 08:44:15 435.950
AO-7 24 Mar 08:46:36 08:50:50 15° 330° (NNW) 08:55:02 .
ZACube-1 24 Mar 08:50:41 08:51:09 10° 84° (E) 08:51:37 437.345
FO-29 24 Mar 08:55:29 09:00:45 21° 50° (NE) 09:05:47 435.910
AAUSAT CUBESAT 2 24 Mar 09:05:38 09:09:11 27° 94° (E) 09:12:44 437.432
STRAND 1 24 Mar 09:06:37 09:10:33 22° 269° (W) 09:14:31 437.568
XW-2A 24 Mar 09:09:50 09:13:14 68° 287° (WNW) 09:16:35 145.665 - 145.685
CUTE-I 24 Mar 09:12:41 09:17:20 30° 299° (WNW) 09:21:55 437.470
SEEDS 24 Mar 09:12:45 09:16:54 61° 101° (E) 09:21:02 437.485
LilacSat-2 24 Mar 09:13:14 09:15:10 14° 300° (WNW) 09:17:05 437.200
CUTE 1.7 + AOD 2 24 Mar 09:14:25 09:18:39 88° 277° (W) 09:22:53 437.475
XW-2F 24 Mar 09:16:52 09:18:40 13° 301° (WNW) 09:20:28 145.980 - 146.000
AO-73 24 Mar 09:18:36 09:21:35 18° 90° (E) 09:24:30 145.935
TIGRISAT 24 Mar 09:21:02 09:24:36 22° 61° (ENE) 09:28:09 435.000
UNISAT 6 24 Mar 09:29:55 09:33:51 27° 63° (ENE) 09:37:46 437.425
PRISM 24 Mar 09:30:22 09:34:14 44° 69° (ENE) 09:38:09 437.425
NO-84 24 Mar 09:35:06 09:37:55 63° 148° (SSE) 09:40:49 435.350 FM
UWE-3 24 Mar 09:37:00 09:41:16 48° 99° (E) 09:45:24 435.000/436.395/437.385
HO-68 24 Mar 09:47:21 09:54:30 75° 292° (WNW) 10:01:38 435.675
YUBILEINY 24 Mar 09:51:18 09:59:55 59° 287° (WNW) 10:08:33 435.215
DOVE 4 24 Mar 09:59:09 09:59:45 10° 311° (NW) 10:00:22 437.250
CUBEBUG 2 24 Mar 10:04:59 10:09:27 60° 289° (WNW) 10:13:45 437.445
BEESAT 2 24 Mar 10:14:51 10:17:32 17° 247° (WSW) 10:20:12 435.950
Oscar 11 24 Mar 10:21:17 10:25:35 64° 102° (ESE) 10:29:51 .
ZACube-1 24 Mar 10:23:52 10:28:12 85° 104° (ESE) 10:32:24 437.345
NANOSAT C BR1 24 Mar 10:32:39 10:33:52 11° 54° (NE) 10:35:05 145.865
EO-79 24 Mar 10:34:51 10:36:41 13° 55° (NE) 10:38:30 145.935-145.965
FO-29 24 Mar 10:36:58 10:44:45 71° 70° (ENE) 10:52:01 435.910
PCSat 24 Mar 10:40:00 10:44:42 31° 112° (ESE) 10:49:27 145.827
AAUSAT CUBESAT 2 24 Mar 10:40:57 10:44:43 34° 292° (WNW) 10:48:28 437.432
DELFI C3 24 Mar 10:48:34 10:52:21 40° 98° (E) 10:56:06 145.870
SEEDS 24 Mar 10:49:24 10:52:11 18° 300° (WNW) 10:54:59 437.485
CUTE 1.7 + AOD 2 24 Mar 10:51:59 10:53:51 13° 303° (WNW) 10:55:42 437.475
AO-73 24 Mar 10:54:00 10:58:11 53° 289° (WNW) 11:02:15 145.935
TIGRISAT 24 Mar 10:56:17 11:00:55 58° 259° (W) 11:05:33 435.000
POLYITAN 1 24 Mar 11:00:31 11:03:43 21° 61° (ENE) 11:06:55 437.675
QB50P2 24 Mar 11:04:44 11:08:09 24° 63° (ENE) 11:11:35 145.880/145.840
UNISAT 6 24 Mar 11:05:51 11:10:22 45° 262° (W) 11:14:52 437.425
PRISM 24 Mar 11:06:40 11:09:45 20° 267° (W) 11:12:51 437.425
NO-84 24 Mar 11:12:53 11:15:36 35° 349° (N) 11:18:26 435.350 FM
UWE-3 24 Mar 11:14:01 11:17:26 22° 298° (WNW) 11:20:47 435.000/436.395/437.385
DUCHIFAT 1 24 Mar 11:20:47 11:24:19 26° 64° (ENE) 11:27:53 145.980
HO-68 24 Mar 11:36:10 11:41:10 21° 313° (NW) 11:46:11 435.675
LO-87 24 Mar 11:36:47 11:39:23 18° 92° (E) 11:41:57 145.935 - 145.965
AIST 2D 24 Mar 11:38:58 11:42:28 67° 75° (ENE) 11:46:01 435.315
BUGSAT 1 24 Mar 11:47:56 11:50:59 20° 61° (ENE) 11:54:03 437.445
YUBILEINY 24 Mar 11:53:47 11:59:00 17° 313° (NW) 12:04:14 435.215
Oscar 11 24 Mar 11:58:24 12:01:17 18° 300° (WNW) 12:04:09 .
ZACube-1 24 Mar 12:01:39 12:03:51 14° 303° (WNW) 12:06:00 437.345
NANOSAT C BR1 24 Mar 12:04:34 12:08:49 73° 73° (ENE) 12:13:06 145.865
EO-79 24 Mar 12:07:28 12:11:45 83° 73° (ENE) 12:16:04 145.935-145.965
ESTCUBE 1 24 Mar 12:16:28 12:20:23 28° 94° (E) 12:24:16 437.505/2401.250
PCSat 24 Mar 12:22:33 12:27:52 55° 313° (NW) 12:33:14 145.827
Gurwin Techsat 1B 24 Mar 12:22:58 12:25:27 13° 50° (NE) 12:27:56 435.225
FO-29 24 Mar 12:23:31 12:30:13 31° 269° (W) 12:36:39 435.910
DELFI C3 24 Mar 12:23:49 12:26:57 22° 296° (WNW) 12:30:04 145.870
AO-7 24 Mar 12:25:53 12:29:06 13° 25° (NNE) 12:32:19 .
Oscar 19 24 Mar 12:27:15 12:30:59 21° 57° (ENE) 12:34:44 437.125/150
POLYITAN 1 24 Mar 12:34:58 12:39:11 53° 260° (W) 12:43:25 437.675
QB50P2 24 Mar 12:39:36 12:43:43 44° 261° (W) 12:47:51 145.880/145.840
NO-84 24 Mar 12:50:49 12:53:37 35° 10° (N) 12:56:35 435.350 FM
RS-15 24 Mar 12:53:20 13:03:24 33° 104° (ESE) 13:13:41 29.354- 29.394
DUCHIFAT 1 24 Mar 12:55:51 12:59:51 39° 262° (W) 13:03:53 145.980
SPROUT 24 Mar 13:07:12 13:10:50 26° 94° (E) 13:14:25 437.525
LO-87 24 Mar 13:09:34 13:13:01 41° 290° (WNW) 13:16:28 145.935 - 145.965
AIST 2D 24 Mar 13:15:10 13:16:09 11° 272° (W) 13:17:07 435.315
BUGSAT 1 24 Mar 13:21:48 13:25:58 56° 259° (W) 13:30:11 437.445
DX 1 24 Mar 13:25:41 13:28:56 20° 92° (E) 13:32:11 434.975-435.025
VELOX 1 24 Mar 13:39:40 13:44:06 59° 101° (ESE) 13:48:30 145.980
NANOSAT C BR1 24 Mar 13:42:46 13:45:03 14° 272° (W) 13:47:20 145.865
EO-79 24 Mar 13:46:20 13:48:06 12° 273° (W) 13:49:54 145.935-145.965
ESTCUBE 1 24 Mar 13:53:06 13:57:17 38° 293° (WNW) 14:01:27 437.505/2401.250
Gurwin Techsat 1B 24 Mar 13:59:11 14:04:26 65° 70° (ENE) 14:09:44 435.225
Oscar 19 24 Mar 14:04:42 14:09:49 72° 257° (WSW) 14:14:58 437.125/150
PCSat 24 Mar 14:08:39 14:12:28 19° 336° (NNW) 14:16:19 145.827
ITAMSAT 1 24 Mar 14:08:53 14:12:32 20° 55° (NE) 14:16:11 435.822/435.867
UKube-1 24 Mar 14:10:17 14:14:21 38° 98° (E) 14:18:24 .
AO-7 24 Mar 14:12:14 14:19:27 35° 50° (NE) 14:26:39 .
50 SAT 24 Mar 14:18:15 14:21:46 74° 286° (WNW) 14:25:17 437.505
NO-84 24 Mar 14:28:16 14:31:22 77° 210° (SSW) 14:34:43 435.350 FM
SPROUT 24 Mar 14:42:52 14:46:52 38° 293° (WNW) 14:50:50 437.525
BEESAT 24 Mar 14:57:30 14:59:09 12° 86° (E) 15:00:47 436.000
DX 1 24 Mar 15:01:08 15:05:26 52° 290° (WNW) 15:09:42 434.975-435.025
RS-15 24 Mar 15:02:21 15:14:31 89° 309° (NW) 15:27:01 29.354- 29.394
ITUPSAT 1 24 Mar 15:11:07 15:13:57 15° 88° (E) 15:16:45 437.325
VELOX 1 24 Mar 15:16:54 15:20:10 20° 300° (WNW) 15:23:27 145.980
MOZHAYETS 4 24 Mar 15:35:41 15:37:17 12° 86° (E) 15:38:54
Gurwin Techsat 1B 24 Mar 15:40:48 15:44:51 22° 270° (W) 15:48:55 435.225
ITAMSAT 1 24 Mar 15:46:10 15:51:24 81° 255° (WSW) 15:56:41 435.822/435.867
UKube-1 24 Mar 15:46:34 15:50:16 28° 296° (WNW) 15:53:57 .
Oscar 19 24 Mar 15:48:40 15:50:04 11° 276° (W) 15:51:29 437.125/150
PCSat 24 Mar 15:55:32 15:58:06 13° 2° (N) 16:00:40 145.827
AO-7 24 Mar 16:03:18 16:11:38 75° 252° (WSW) 16:20:00 .
NO-84 24 Mar 16:06:41 16:08:33 14° 226° (SW) 16:10:29 435.350 FM
SO-50 24 Mar 16:19:07 16:23:32 45° 123° (ESE) 16:27:55 436.795
BEESAT 24 Mar 16:32:55 16:37:43 82° 106° (ESE) 16:42:28 436.000
ITUPSAT 1 24 Mar 16:47:35 16:52:22 78° 288° (WNW) 16:57:07 437.325
HO-68 24 Mar 16:53:40 16:54:29 10° 32° (NNE) 16:55:18 435.675
KKS-1 24 Mar 17:09:16 17:12:47 22° 92° (E) 17:16:15 437.445
MOZHAYETS 4 24 Mar 17:10:35 17:15:10 87° 103° (ESE) 17:19:44
RS-15 24 Mar 17:16:58 17:28:42 47° 339° (NNW) 17:40:33 29.354- 29.394
XW-2D 24 Mar 17:18:38 17:20:46 15° 60° (ENE) 17:22:54 145.860 - 145.880
CUTE-I 24 Mar 17:20:24 17:24:34 23° 57° (ENE) 17:28:43 437.470
XW-2B 24 Mar 17:24:14 17:26:36 16° 61° (ENE) 17:28:58 145.730 - 145.750
O/OREOS (USA 219) 24 Mar 17:26:06 17:29:20 20° 101° (ESE) 17:32:37 437.305
NUDT-PHONESAT 24 Mar 17:26:39 17:28:39 14° 60° (ENE) 17:30:37 437.300
ITAMSAT 1 24 Mar 17:29:17 17:31:43 13° 274° (W) 17:34:09 435.822/435.867
KAITUO 1B 24 Mar 17:30:43 17:32:57 15° 61° (ENE) 17:35:11 145.475/437.950
XW-2C 24 Mar 17:33:48 17:36:36 20° 63° (ENE) 17:39:23 145.795 - 145.815
PCSat 24 Mar 17:39:24 17:43:36 22° 28° (NNE) 17:47:48 145.827
DOVE 4 24 Mar 17:50:26 17:54:53 43° 67° (ENE) 17:59:37 437.250
STARS 24 Mar 17:51:46 17:55:32 26° 94° (E) 17:59:14 437.465
CUBESAT XI-V 24 Mar 17:56:30 18:01:00 48° 99° (E) 18:05:31 437.345
YUBILEINY 24 Mar 17:59:04 18:06:03 26° 57° (ENE) 18:12:59 435.215
SO-50 24 Mar 17:59:49 18:04:07 37° 322° (NW) 18:08:22 436.795
AO-7 24 Mar 18:00:26 18:05:51 18° 274° (W) 18:11:17 .
BEESAT 24 Mar 18:11:51 18:14:54 17° 304° (NW) 18:17:56 436.000
LilacSat-2 24 Mar 18:23:28 18:27:16 65° 73° (ENE) 18:31:04 437.200
XW-2F 24 Mar 18:26:13 18:29:59 65° 74° (ENE) 18:33:45 145.980 - 146.000
ITUPSAT 1 24 Mar 18:27:05 18:29:25 14° 307° (NW) 18:31:46 437.325
HO-68 24 Mar 18:33:54 18:40:09 34° 56° (NE) 18:46:24 435.675
SEEDS 24 Mar 18:36:41 18:37:40 11° 55° (NE) 18:38:40 437.485
CUTE 1.7 + AOD 2 24 Mar 18:37:29 18:40:01 16° 59° (ENE) 18:42:33 437.475
KKS-1 24 Mar 18:45:15 18:49:36 50° 291° (WNW) 18:53:56 437.445
MOZHAYETS 4 24 Mar 18:49:08 18:51:42 15° 304° (WNW) 18:54:17
XW-2D 24 Mar 18:50:44 18:54:31 64° 258° (WSW) 18:58:19 145.860 - 145.880
XW-2B 24 Mar 18:56:39 19:00:25 56° 260° (W) 19:04:11 145.730 - 145.750
NUDT-PHONESAT 24 Mar 18:58:23 19:02:07 65° 258° (WSW) 19:05:52 437.300
M-CUBED/EXP-1 PRIME 24 Mar 18:58:36 19:01:52 19° 96° (E) 19:05:10 437.505
CUTE-I 24 Mar 18:58:47 19:04:09 69° 257° (WSW) 19:09:33 437.470
KAITUO 1B 24 Mar 19:02:53 19:06:35 58° 259° (WSW) 19:10:18 145.475/437.950
O/OREOS (USA 219) 24 Mar 19:03:50 19:08:19 59° 301° (WNW) 19:12:52 437.305
UWE-3 24 Mar 19:04:59 19:06:37 12° 54° (NE) 19:08:15 435.000/436.395/437.385
XW-2C 24 Mar 19:06:53 19:10:33 43° 261° (W) 19:14:12 145.795 - 145.815
PCSat 24 Mar 19:22:30 19:27:58 71° 51° (NE) 19:33:23 145.827
STARS 24 Mar 19:27:50 19:32:01 40° 293° (WNW) 19:36:08 437.465
DOVE 4 24 Mar 19:28:41 19:32:45 28° 268° (W) 19:37:03 437.250
CUBEBUG 2 24 Mar 19:31:04 19:35:06 28° 64° (ENE) 19:39:05 437.445
STRAND 1 24 Mar 19:33:04 19:35:52 15° 87° (E) 19:38:40 437.568
RS-15 24 Mar 19:33:06 19:44:45 43° 12° (NNE) 19:56:11 29.354- 29.394
CUBESAT XI-V 24 Mar 19:34:22 19:38:09 25° 298° (WNW) 19:41:55 437.345
SO-50 24 Mar 19:43:05 19:45:49 15° 346° (NNW) 19:48:33 436.795
XW-2A 24 Mar 19:45:08 19:48:35 83° 75° (ENE) 19:52:04 145.665 - 145.685
Oscar 11 24 Mar 19:47:02 19:48:59 13° 56° (NE) 19:50:55 .
ZACube-1 24 Mar 19:49:13 19:52:11 17° 59° (ENE) 19:55:07 437.345
YUBILEINY 24 Mar 19:55:25 20:04:11 90° 74° (ENE) 20:12:55 435.215
AAUSAT CUBESAT 2 24 Mar 19:59:59 20:03:38 32° 67° (ENE) 20:07:20 437.432
LilacSat-2 24 Mar 20:00:11 20:01:59 13° 272° (W) 20:03:46 437.200
XW-2F 24 Mar 20:02:49 20:04:33 13° 271° (W) 20:06:18 145.980 - 146.000
SEEDS 24 Mar 20:08:29 20:12:38 75° 73° (ENE) 20:16:48 437.485
CUTE 1.7 + AOD 2 24 Mar 20:11:09 20:15:22 71° 258° (WSW) 20:19:35 437.475
AO-73 24 Mar 20:17:53 20:21:42 27° 64° (ENE) 20:25:28 145.935
HO-68 24 Mar 20:20:25 20:27:30 64° 257° (WSW) 20:34:39 435.675
M-CUBED/EXP-1 PRIME 24 Mar 20:32:07 20:36:39 67° 294° (WNW) 20:41:17 437.505
